UAL653 EDDF-KBOS

Flight info

Callsign UAL653
Flight time N/A
Altitude 40000
Route OBOKA5S OBOKA Z29 TORNU DCT VICOT DCT GALSO Q63 ERING L179 UGBET Q60 OKSAW DCT BIBPE DCT TIGWE DCT FELCA DCT FADZU DCT NICXI DCT OFSOX DCT SLANY DCT DIMUS DCT MALOT/M078F400 DCT 54N020W 54N030W 54N040W 53N050W DCT RIKAL/N0459F400 N572A TOPPS DCT AJJAY OOSHN5
Aircraft CONC/H-SDE2E3FGHIRYW/X

Departure

Time 2026-05-04 22:37
Airport Frankfurt Main Airport (EDDF)

Arrival

Time N/A
Airport Boston Logan International Airport (KBOS)
Time Latitude Longitude Altitude Speed Heading
2026-05-04 21:54 50.04919 8.57066 376 ft 0 kts 98°
2026-05-04 22:18 50.04919 8.57068 375 ft 2 kts 98°
2026-05-04 22:18 50.04899 8.57101 375 ft 4 kts 168°
2026-05-04 22:18 50.04876 8.57093 375 ft 2 kts 208°
2026-05-04 22:19 50.04874 8.57091 375 ft 0 kts 208°
2026-05-04 22:21 50.04871 8.57089 375 ft 1 kts 206°
2026-05-04 22:22 50.04835 8.57062 375 ft 10 kts 205°
2026-05-04 22:22 50.04761 8.57011 375 ft 10 kts 203°
2026-05-04 22:22 50.04704 8.56973 375 ft 7 kts 205°
2026-05-04 22:22 50.04666 8.56945 375 ft 4 kts 205°
2026-05-04 22:23 50.04645 8.56930 375 ft 2 kts 206°
2026-05-04 22:23 50.04610 8.56904 375 ft 8 kts 206°
2026-05-04 22:23 50.04541 8.56859 375 ft 11 kts 195°
2026-05-04 22:23 50.04484 8.56888 375 ft 7 kts 113°
2026-05-04 22:24 50.04486 8.56956 375 ft 4 kts 77°
2026-05-04 22:24 50.04497 8.57016 375 ft 7 kts 72°
2026-05-04 22:24 50.04519 8.57113 375 ft 12 kts 70°
2026-05-04 22:24 50.04547 8.57229 375 ft 9 kts 70°
2026-05-04 22:25 50.04569 8.57320 375 ft 6 kts 70°
2026-05-04 22:25 50.04585 8.57390 375 ft 7 kts 71°
2026-05-04 22:25 50.04578 8.57482 375 ft 10 kts 130°
2026-05-04 22:25 50.04522 8.57542 375 ft 8 kts 151°
2026-05-04 22:26 50.04487 8.57595 375 ft 5 kts 123°
2026-05-04 22:26 50.04475 8.57639 375 ft 4 kts 104°
2026-05-04 22:26 50.04476 8.57722 375 ft 11 kts 77°
2026-05-04 22:26 50.04488 8.57787 375 ft 13 kts 71°
2026-05-04 22:27 50.04503 8.57851 375 ft 12 kts 70°
2026-05-04 22:27 50.04532 8.57968 375 ft 9 kts 69°
2026-05-04 22:27 50.04552 8.58056 375 ft 8 kts 70°
2026-05-04 22:27 50.04587 8.58202 375 ft 18 kts 70°
2026-05-04 22:28 50.04628 8.58373 375 ft 15 kts 68°
2026-05-04 22:28 50.04664 8.58519 375 ft 11 kts 70°
2026-05-04 22:28 50.04684 8.58606 375 ft 6 kts 70°
2026-05-04 22:28 50.04697 8.58662 375 ft 3 kts 78°
2026-05-04 22:29 50.04697 8.58690 375 ft 2 kts 97°
2026-05-04 22:29 50.04694 8.58713 375 ft 3 kts 111°
2026-05-04 22:31 50.04693 8.58715 375 ft 2 kts 112°
2026-05-04 22:31 50.04693 8.58716 375 ft 0 kts 112°
2026-05-04 22:34 50.04691 8.58721 375 ft 1 kts 122°
2026-05-04 22:34 50.04676 8.58740 375 ft 4 kts 153°
2026-05-04 22:34 50.04641 8.58748 375 ft 6 kts 186°
2026-05-04 22:34 50.04607 8.58732 375 ft 4 kts 205°
2026-05-04 22:35 50.04573 8.58702 375 ft 7 kts 212°
2026-05-04 22:35 50.04531 8.58661 375 ft 5 kts 213°
2026-05-04 22:35 50.04503 8.58630 375 ft 4 kts 224°
2026-05-04 22:35 50.04489 8.58596 375 ft 3 kts 249°
2026-05-04 22:36 50.04475 8.58538 375 ft 20 kts 250°
2026-05-04 22:36 50.04350 8.58013 375 ft 91 kts 250°
2026-05-04 22:36 50.04032 8.56685 375 ft 170 kts 250°
2026-05-04 22:36 50.03534 8.54618 382 ft 235 kts 251°
2026-05-04 22:37 50.02960 8.51984 680 ft 278 kts 253°
2026-05-04 22:37 50.02194 8.49026 1328 ft 301 kts 236°
2026-05-04 22:37 50.00882 8.46833 1025 ft 272 kts 215°
2026-05-04 22:37 49.99149 8.45177 483 ft 326 kts 206°
2026-05-04 22:38 49.96888 8.43933 1424 ft 372 kts 187°
2026-05-04 22:38 49.94094 8.43889 2114 ft 398 kts 169°
2026-05-04 22:38 49.91850 8.44737 2956 ft 295 kts 158°
2026-05-04 22:38 49.90012 8.45754 3128 ft 277 kts 171°
2026-05-04 22:39 49.88113 8.45978 3144 ft 268 kts 182°
2026-05-04 22:39 49.86209 8.45953 3283 ft 276 kts 180°
2026-05-04 22:39 49.84240 8.45927 3236 ft 278 kts 183°
2026-05-04 22:39 49.82321 8.45781 3625 ft 278 kts 183°
2026-05-04 22:40 49.80389 8.45636 3843 ft 278 kts 183°
2026-05-04 22:40 49.78456 8.45474 3934 ft 278 kts 184°
2026-05-04 22:40 49.76525 8.45303 3984 ft 276 kts 184°
2026-05-04 22:40 49.74592 8.45130 3936 ft 277 kts 184°
2026-05-04 22:41 49.72704 8.44668 3931 ft 277 kts 208°
2026-05-04 22:41 49.71229 8.42834 4033 ft 277 kts 244°
2026-05-04 22:41 49.70771 8.39907 4295 ft 279 kts 283°
2026-05-04 22:41 49.71566 8.37225 5047 ft 277 kts 309°
2026-05-04 22:42 49.72856 8.35055 5969 ft 279 kts 316°
2026-05-04 22:42 49.74341 8.33179 6820 ft 279 kts 323°
2026-05-04 22:42 49.75990 8.31500 7463 ft 288 kts 326°
2026-05-04 22:42 49.77727 8.29880 8037 ft 299 kts 327°
2026-05-04 22:43 49.79542 8.28285 8619 ft 309 kts 328°
2026-05-04 22:43 49.81434 8.26667 9168 ft 310 kts 329°
2026-05-04 22:43 49.83322 8.25069 9693 ft 313 kts 329°
2026-05-04 22:43 49.85252 8.23446 10245 ft 322 kts 329°
2026-05-04 22:44 49.87244 8.21769 10847 ft 332 kts 329°
2026-05-04 22:44 49.89291 8.20053 11444 ft 343 kts 329°
2026-05-04 22:44 49.91410 8.18273 12038 ft 356 kts 329°